Preview of NWS' New Version of Forecast
This preview is not operational and should not be used for support decisions.
Latest weather observations around

Fort Myers, Page Field (KFMY)

Using International System of Units (Switch to English Units)
Date/ Time (EST) Wind (kph) Vis. (km) Weather Sky Cond. Temp (°C) Rel. Humidity Wind Chill (°C) Heat Index (°C) Pressure Precip. (cm)
Air Dwpt 6 hour Altimeter (hPa) Sea level (hPa) 1 hr 3 hr 6 hr
Max Min
Feb 20 21:53 ESE 8 16.09 Clear CLR 22 21     93%   22 1019.3 1019.4      
Feb 20 20:53 Calm 16.09 Clear CLR 23 21     85%   24 1019 1018.9      
Feb 20 19:53 Calm 16.09 Clear CLR 24 21     82%   24 1018 1018.2      
Feb 20 18:53 SSW 5 16.09 Clear CLR 24 20     76%   25 1017.6 1017.8     0
Feb 20 17:53 SSW 9 16.09 Clear CLR 26 20     71%   26 1017.3 1017.3 0    
Feb 20 16:53 SW 11 16.09 Light Rain FEW027 BKN039 OVC060 27 21     69%   28 1016.9 1017.1 0    
Feb 20 15:53 SE 8 16.09 Mostly Cloudy SCT046 BKN070 27 19     62%   29 1016.9 1017.1      
Feb 20 14:53 S 18 16.09 Cloudy FEW042 OVC050 27 18     58%   28 1016.9 1017.2      
Feb 20 13:53 S 15 16.09 Cloudy BKN065 OVC080 27 18     58%   28 1017.6 1017.9      
Feb 20 12:53 SSE 33 16.09 Cloudy and Windy SCT034 BKN055 OVC070 26 20     71%   26 1019 1018.9      
Feb 20 11:53 SE 21 16.09 Mostly Cloudy FEW034 SCT045 BKN060 28 19     60%   29 1019 1019.2      
Feb 20 10:53 SSE 18 16.09 Mostly Cloudy BKN026 BKN030 28 21     65%   30 1019.7 1019.7      
Feb 20 09:53 SSE 22 16.09 Mostly Cloudy BKN019 BKN023 26 21     74%   28 1019.7 1019.6      
Feb 20 09:22 SE 18 16.09 Mostly Cloudy BKN015 25 22     82%   26 1019.7        
Feb 20 08:53 SE 18 16.09 Partly Cloudy SCT019 24 22     85%   25 1019.7 1019.8      
Feb 20 07:53 SSE 9 16.09 Mostly Clear FEW024 23 22     94%   24 1019.3 1019.4      
Feb 20 07:18 ESE 5 14.48 Mostly Clear FEW024 22 21     96%   22 1019        
Feb 20 07:11 ESE 8 14.48 Mostly Cloudy FEW014 BKN023 BKN065 22 21     93%   23 1019        
Feb 20 07:04 SE 8 14.48 Partly Cloudy FEW014 SCT023 SCT065 22 21     96%   22 1019        
Feb 20 06:53 ESE 8 16.09 Mostly Cloudy FEW007 SCT016 BKN022 22 21     96%   22 1019 1019     0
Feb 20 06:45 ESE 8 16.09 Mostly Cloudy SCT007 BKN019 BKN065 22 21     93%   23 1018.6        
Feb 20 05:53 SE 9 16.09 Cloudy OVC008 23 21     90%   23 1018.3 1018.4      
Feb 20 05:05 Calm 16.09 Cloudy OVC009 23 21     90%   23 1018        
Feb 20 04:53 SE 8 16.09 Cloudy BKN013 BKN019 OVC027 23 21     90%   23 1018 1018.2      
Feb 20 04:36 ESE 5 16.09 Cloudy FEW020 BKN027 OVC070 22 21     93%   23 1018        
Feb 20 03:53 E 9 16.09 Cloudy OVC070 22 21     91%   23 1018 1018.2   0  
Feb 20 02:53 ESE 13 16.09 Cloudy OVC060 22 21     91%   23 1018.3 1018.5 0    
Feb 20 01:53 ESE 15 16.09 Mostly Cloudy BKN065 22 20     87%   23 1019 1019.1      
Feb 20 00:53 ESE 11 16.09 Clear CLR 22 19     87%   22 1019.3 1019.6      
Feb 19 23:53 E 11 16.09 Clear CLR 22 19     84%   22 1020 1020.1      
Feb 19 22:53 ESE 11 16.09 Clear   22 19     82%   23 1020.3 1020.6      
Feb 19 21:53 ESE 15 16.09 Clear CLR 23 18     74%   24 1020.3 1020.3      
Feb 19 20:53 ESE 17 16.09 Clear CLR 24 18     69%   24 1020 1020.1      
Feb 19 19:53 ESE 18 16.09 Clear CLR 25 17     62%   25 1019.7 1019.6      
Feb 19 18:53 ESE 15 16.09 Mostly Clear FEW002 27 16     52%   27 1019 1019.2      
Feb 19 18:46 ESE 13 16.09 Mostly Clear FEW002 27 17     54%   27 1019        
Feb 19 17:53 ESE 26 16.09 Clear CLR 28 16     46%   28 1019 1018.9      
Feb 19 16:53 ESE 30 16.09 Clear CLR 29 16     45%   30 1018.6 1018.8      
Feb 19 15:53 SSE 22 16.09 Mostly Clear FEW060 31 16     39%   31 1018.3 1018.5      
Feb 19 14:53 ESE 21 16.09 Mostly Clear FEW055 FEW075 30 17     45%   30 1019 1019.2      
Feb 19 13:53 SE 21 16.09 Mostly Cloudy BKN050 32 17     41%   32 1020 1020      
Feb 19 12:53 ESE 15 16.09 Partly Cloudy FEW044 SCT080 31 18     46%   31 1021 1021.2      
Feb 19 11:53 SE 15 16.09 Partly Cloudy SCT070 29 18     53%   30 1022 1022.3      
Feb 19 11:12 SE 15 16.09 Mostly Clear FEW070 28 20     61%   30 1022.7        
Feb 19 10:53 E 13 16.09 Mostly Cloudy SCT009 BKN080 28 21     65%   30 1023 1023.1      
Feb 19 10:01 E 9 16.09 Mostly Cloudy SCT009 BKN080 26 22     82%   26 1023        
Feb 19 09:53 E 13 16.09 Mostly Cloudy BKN009 BKN080 26 22     82%   26 1023 1023.2      
Feb 19 09:50 E 11 16.09 Mostly Cloudy BKN011 BKN080 25 22     83%   26 1023        
Feb 19 09:24 E 8 16.09 Partly Cloudy SCT004 23 22     94%   24 1023        
Feb 19 09:12 ESE 8 12.87 Mostly Cloudy BKN003 23 22     96%   24 1022.7        
Feb 19 08:53 5 6.44 Fog/Mist OVC002 22 22     97%   23 1022.7 1022.8      
Feb 19 08:50 SE 8 4.83 Fog/Mist OVC002 22 22     100%   23 1022.7        
Feb 19 08:39 ESE 8 2.01 Fog/Mist OVC002 22 22     100%   23 1022.4        
Feb 19 07:53 ENE 5 0.4 Fog VV002 22 21     96%   22 1022 1022      
Feb 19 07:23 Calm 0.4 Clear   21 21     100%     1021.3        
Feb 19 06:53 ENE 5 1.61 Clear   21 21     97%     1021 1021.2      
Feb 19 06:31 NE 5 9.66 Fog/Mist BKN003 21 20     93%     1021        
Feb 19 05:53 NNE 9 11.27 Cloudy OVC005 21 20     93%     1020.7 1020.7      
Feb 19 05:23 NNE 11 11.27 Cloudy BKN007 OVC016 21 20     93%     1020.3        
Feb 19 04:53 Calm 9.66 Fog/Mist FEW008 BKN016 21 19     93%     1020.3 1020.5      
Feb 19 04:45 Calm 9.66 Fog/Mist FEW008 BKN016 21 20     96%     1020.3        
Feb 19 03:53 Calm 9.66 Fog/Mist SCT075 21 20     96%     1020.3 1020.6      
Feb 19 02:53 Calm 9.66 Fog/Mist CLR 21 20     96%     1020.7 1020.7      
Feb 19 01:53 Calm 9.66 Fog/Mist CLR 21 21     97%     1020.7 1020.8      
Feb 19 00:53 Calm 11.27 Clear CLR 21 20     93%     1021 1021.1      
Feb 18 23:53 Calm 12.87 Clear CLR 22 21     93%   22 1021.3 1021.4      
Feb 18 22:53 Calm 14.48 Clear CLR 22 21     93%   22 1021.3 1021.6      
Feb 18 21:53 Calm 16.09 Clear CLR 22 21     93%   23 1021 1021.3      
Feb 18 20:53 Calm 16.09 Clear CLR 23 21     87%   24 1020.7 1020.8      
Feb 18 19:53 Calm 16.09 Clear CLR 24 21     82%   25 1020 1020.2      
Feb 18 18:53 SW 9 16.09 Clear CLR 26 21     74%   26 1019.3 1019.5      
Feb 18 17:53 WSW 15 16.09 Clear CLR 27 20     67%   28 1019.3 1019.3      
Feb 18 16:53 SSW 13 16.09 Clear CLR 28 21     65%   30 1018.6 1018.9      
Feb 18 15:53 SW 15 16.09 Clear CLR 28 21     63%   30 1018.6 1018.7      
Feb 18 14:53 SSW 18 16.09 Clear CLR 28 21     63%   30 1018.6 1018.7      
Feb 18 13:53 SW 18 16.09 Partly Cloudy SCT025 29 21     61%   31 1019 1019.1      
Feb 18 12:53 SSW 18 16.09 Partly Cloudy FEW026 SCT034 29 21     61%   31 1019.7 1019.7      
Feb 18 11:53 S 18 16.09 Clear CLR 28 21     63%   30 1020 1020      
Feb 18 11:00 SSW 15 16.09 Partly Cloudy SCT023 28 21     65%   31 1020        
Feb 18 10:53 S 11 16.09 Mostly Cloudy BKN014 BKN020 28 21     67%   30 1019.7 1019.9      
Feb 18 09:53 S 15 16.09 Mostly Cloudy BKN014 BKN020 26 22     79%   28 1019.3 1019.6      
Feb 18 09:18 S 13 16.09 Mostly Cloudy BKN010 25 23     88%   26 1019        
Feb 18 08:53 S 11 8.05 Fog/Mist BKN007 OVC013 24 23     94%   25 1019 1018.9      
Feb 18 07:53 SSE 11 4.83 Fog/Mist BKN004 BKN009 BKN015 23 22     96%   24 1018 1018.1      
Feb 18 06:53 SSE 9 3.22 Fog/Mist BKN004 BKN023 22 22     97%   23 1017.3 1017.4      
Feb 18 06:45 SSE 9 11.27 Partly Cloudy FEW004 SCT023 22 22     97%   23 1017.3        
Feb 18 05:53 SE 8 12.87 Mostly Clear FEW031 22 22     97%   23 1016.6 1016.9      
Feb 18 05:41 SE 8 14.48 Mostly Cloudy SCT024 BKN032 22 22     97%   23 1016.9        
Feb 18 05:12 SSE 5 14.48 Cloudy BKN022 OVC036 22 22     97%   23 1016.6        
Feb 18 04:53 SSE 5 16.09 Partly Cloudy SCT034 22 22     97%   23 1016.6 1016.7      
Feb 18 04:05 SE 5 16.09 Clear   22 21     93%   23 1016.3        
Feb 18 03:53 SE 5 16.09 Clear   22 21     93%   23 1016.3 1016.4      
Feb 18 02:53 SE 5 16.09 Mostly Cloudy BKN040 23 21     90%   23 1016.3 1016.4      
Feb 18 01:53 SSE 8 16.09 Cloudy BKN041 OVC060 23 21     87%   24 1016.6 1016.6      
Feb 18 00:53 SSE 11 16.09 Mostly Cloudy BKN060 23 21     87%   24 1016.6 1016.6      
Feb 17 23:53 SSE 9 16.09 Mostly Cloudy SCT048 BKN060 23 20     84%   23 1016.6 1016.8      
Feb 17 22:53 SSE 8 16.09 Clear CLR 22 19     82%   23 1016.6 1016.9      
May 14 11:53 SSW 9 8.05 Light Rain and Fog/Mist SCT100 OVC120 24 22     90%   25 1013.6 1013.8 0    
May 14 05:53 SE 8 12.87 Light Rain SCT006 BKN011 OVC030 22 21     96%   22 1013.6 1013.6 0    
May 13 13:07 E 13 14.48 Clear   24 22     88%   25 1016.9   0    
Notice The following observation data may not be complete
May 12 19:53   16.09 Clear CLR          %              
May 12 16:53 ENE 21 16.09 Clear CLR 28 17     51%   29 1017.3 1017.3      
May 12 12:53 NE 11 12.87 Cloudy OVC100 27 18     58%   28 1020 1020      
May 12 05:53 Calm 11.27 Clear CLR 22 17     71%   22 1018.3 1018.4 0    
May 12 02:53 Calm 11.27 Clear CLR 23 16     62%   23 1018.3 1018.4      
May 12 01:53 Calm 9.66 Haze CLR 24 14     55%   24 1018.6 1018.9      
May 12 00:53 S 5 11.27 Clear CLR 25 14     50%   25 1019.3 1019.5      
Jun 11 18:29 E 18 14.48 Clear   24 22     88%   25 1018.3   0    
Jun 11 17:32 5 9.66 Cloudy SCT048 BKN090 OVC110 28 24     77%   32 1017.6   0    
Jun 11 15:53 SE 15 16.09 Clear   32 25     66%   39 1018.3 1018.5      
Jun 11 06:44 E 8 9.66 Fog/Mist SCT005 25 25     100%   26 1018.6        
Jun 10 22:53 E 8 16.09 Clear   24 24     100%   25 1018.6 1018.7      
Jun 10 00:18 Calm 16.09 Light Rain BKN024 OVC034 26 24     90%   28 1014.6   0    
Jun 09 21:53 SSW 5 16.09 Clear CLR 28 22     69%   30 1013.9 1014.2      
Jun 09 07:53 ENE 15 12.87 Mostly Cloudy BKN006 24 23     96%   25 1012.5 1012.7      
Notice The following observation data may not be complete
Jun 06 14:53     Clear            %     1008.1 1008.4 0    
Notice The following observation data may not be complete
Jun 06 13:43   16.09 Cloudy FEW011 OVC017          %         0    
Jun 05 16:53 NNW 11 16.09 Cloudy FEW010 BKN041 OVC110 24 24     97%   25 1012.5 1012.7 0 1